Regional Weather Roundup
Issued by NWS

Home | Current Version | Previous Version | Graphics & Text | Print | Product List | Glossary On
Versions: 1 2 3 4 5 6 7 8 9 10 11 12 13 14 15 16 17 18 19 20 21 22 23 24 25 26 27 28 29 30 31 32 33 34 35 36 37 38 39 40 41 42 43 44 45 46 47 48 49 50
000
ASUS43 KIND 190109
RWRIN

WEATHER ROUNDUP FOR INDIANA
NATIONAL WEATHER SERVICE INDIANAPOLIS IN
800 PM EST WED JAN 18 2017

NOTE: "FAIR" INDICATES FEW OR NO CLOUDS BELOW 12,000 FEET WITH NO
SIGNIFICANT WEATHER AND/OR OBSTRUCTIONS TO VISIBILITY.

* - STATION DOES NOT REPORT WEATHER SUCH AS PRECIPITATION OR FOG.

+ - STATION NOT QUALITY CONTROLLED BY THE NATIONAL WEATHER SERVICE.
    USE DATA WITH CAUTION...ESPECIALLY DEWPOINT AND RELATIVE
    HUMIDITY OBSERVATIONS.

INZ001>003-010>013-019-020-190200-
NORTHWEST INDIANA

CITY           SKY/WX    TMP DP  RH WIND       PRES   REMARKS
GARY /AIRPORT/ CLOUDY    39  34  81 SW9       30.11S
KNOX *+        CLOUDY    36  23  60 SW7       30.12S
LA PORTE +     CLOUDY    35  33  90 SW8       30.10F WCI  29
MICHIGAN CITY+ CLOUDY    36  36 100 SW10      30.10F
MONTICELLO +   CLOUDY    36  33  86 SW9       30.13R
RENSSELAER +     N/A     37  36  93 SW8       30.12S
VALPARAISO     CLOUDY    37  34  89 SW13      30.11S

$$

LMZ046-743>745-190200-
SOUTHERN LAKE MICHIGAN

STATION/POSITION TIME  TEMP    WIND        PRES    WAVE
                       AIR SEA DIR/SP/G            HT
                 (UTC) (F)     (DEG/KT/KT) (MB)    (FT)
BURNS HARBOR     0040   37     220/  9/ 12 1019.6F

$$

INZ004-005-014>016-021>024-190200-
NORTH CENTRAL INDIANA

CITY           SKY/WX    TMP DP  RH WIND       PRES   REMARKS
ELKHART        CLOUDY    34  32  93 SW8       30.10F FOG     WCI  27
GOSHEN         CLOUDY    34  32  92 SW10      30.11R FOG     WCI  26
LOGANSPORT +   CLOUDY    36  34  93 SW9       30.15R
PERU/GRISSOM   CLOUDY    36  36 100 SW10      30.12R
ROCHESTER +    CLOUDY    36  36 100 SW5       30.13R
SOUTH BEND     CLOUDY    34  32  92 SW10      30.10F WCI  26
WARSAW +       CLOUDY    34  30  86 W10       30.11F HAZE    WCI  26

$$

INZ006>009-017-018-025>027-190200-
NORTHEAST INDIANA

CITY           SKY/WX    TMP DP  RH WIND       PRES   REMARKS
ANGOLA *+      CLOUDY    32  30  93 SW12      30.07F WCI  23
AUBURN +       CLOUDY    34  32  93 W8        30.11F FOG     WCI  27
FORT WAYNE     DRIZZLE   36  34  92 W12       30.12S FOG
HUNTINGTON +   CLOUDY    34  33  96 W6        30.12S FOG     WCI  29
KENDALLVILLE + CLOUDY    32  32 100 W9        30.10F FOG     WCI  25

$$

INZ028-029-035-036-043>045-051>053-190200-
WEST CENTRAL INDIANA

CITY           SKY/WX    TMP DP  RH WIND       PRES   REMARKS
CRAWFORDSVL +  CLOUDY    35  35 100 SW6       30.14S WCI  30
GREENCASTLE +  CLOUDY    36  34  93 S5        30.15R
LAFAYETTE      CLOUDY    37  34  89 SW7       30.14R
TERRE HAUTE    CLOUDY    38  34  85 S7        30.15R

$$

INZ030>032-037>040-046>048-054>057-064-065-190200-
CENTRAL INDIANA

CITY           SKY/WX    TMP DP  RH WIND       PRES   REMARKS
CP ATTERBURY + CLOUDY    37  34  87 CALM      30.16S
COLUMBUS       CLOUDY    37  37 100 SW5       30.15R
FISHERS *+     CLOUDY    36  36 100 SW5       30.14
FRANKFORT +    CLOUDY    38  36  91 W12       30.16R
GREENWOOD *+   CLOUDY    39  37  95 SW5       30.15S
INDIANAPOLIS   CLOUDY    37  35  92 SW8       30.14R
-EAGLE CREEK   CLOUDY    38  34  85 VRB5      30.13R
KOKOMO +       CLOUDY    36  35  96 SW8       30.14R FOG
MARION +       CLOUDY    36  36 100 W8        30.13S FOG
MT COMFORT *+  CLOUDY    36  36 100 SW9       30.14R
SHELBYVILLE    CLOUDY    39  35  86 W6        30.14R
ZIONSVILLE +   CLOUDY    35  34  96 SW8       30.14R WCI  29

$$

INZ033-034-041-042-049-050-058-059-190200-
EAST CENTRAL INDIANA

CITY           SKY/WX    TMP DP  RH WIND       PRES   REMARKS
MUNCIE         CLOUDY    38  35  89 W6        30.12S

$$

INZ060-061-067>069-081>083-085>088-190200-
SOUTHWEST INDIANA

CITY           SKY/WX    TMP DP  RH WIND       PRES   REMARKS
EVANSVILLE     MOCLDY    41  35  79 CALM      30.15R
HUNTINGBURG *+ PTCLDY    39  35  86 CALM      30.15R
WASHINGTON +   CLOUDY    40  36  86 CALM      30.15S

$$

INZ062-063-066-070>080-084-089>092-190200-
SOUTH CENTRAL AND SOUTHEAST INDIANA

CITY           SKY/WX    TMP DP  RH WIND       PRES   REMARKS
BLOOMINGTON    CLOUDY    38  33  82 S3        30.15R
MADISON *+     CLOUDY    39  36  87 S3        30.17R
NORTH VERNON + CLOUDY   N/A N/A N/A SW7       30.15R
SEYMOUR +      CLOUDY    41  37  87 SW5       30.16R

$$





USA.gov is the U.S. government's official web portal to all federal, state and local government web resources and services.